CW9461 Weather Reports


time (UTC)temp
F
wind
direction
speed
knots
gust
knots
rain 1hr
in
rain 24hr
in
rain mn
in
humidity
%
barometer
mb
20260503010605 63 146 2.6 5.2 0.00 0.00 0.00 63 1001.7
20260503005605 64 257 1.7 5.2 0.00 0.00 0.00 62 1001.5
20260503005106 64 136 1.7 5.2 0.00 0.00 0.00 62 1001.7
20260503004605 64 189 1.7 5.2 0.00 0.00 0.00 61 1001.5
20260503004105 65 161 1.7 5.2 0.00 0.00 0.00 61 1001.4
20260503003605 65 175 1.7 4.3 0.00 0.00 0.00 61 1001.6
20260503003105 65 169 0.9 4.3 0.00 0.00 0.00 60 1001.7
20260503002605 65 211 1.7 4.3 0.00 0.00 0.00 60 1001.7
20260503002105 65 286 1.7 7.0 0.00 0.00 0.00 60 1001.7
20260503001605 65 196 1.7 4.3 0.00 0.00 0.00 60 1001.7
20260503001105 65 164 1.7 4.3 0.00 0.00 0.00 60 1001.7
20260503000605 65 168 2.6 5.2 0.00 0.00 0.00 60 1001.7
20260503000106 65 230 2.6 7.0 0.00 0.00 0.00 60 1001.7
20260502235604 65 242 2.6 6.1 0.00 0.00 0.00 59 1001.7
20260502235106 66 228 2.6 6.1 0.00 0.00 0.00 58 1001.7
20260502234105 66 160 0.9 5.2 0.00 0.00 0.00 59 1001.7
20260502233605 66 218 1.7 7.8 0.00 0.00 0.00 59 1001.7
20260502233105 66 235 2.6 7.0 0.00 0.00 0.00 60 1001.9
20260502232605 66 142 1.7 6.1 0.00 0.00 0.00 59 1001.8
20260502232106 66 230 4.3 7.8 0.00 0.00 0.00 60 1001.7
20260502231606 66 228 1.7 7.0 0.00 0.00 0.00 61 1001.9
20260502231105 65 281 1.7 7.8 0.00 0.00 0.00 61 1002.0
20260502230605 65 223 4.3 8.7 0.00 0.00 0.00 61 1002.0
20260502225605 65 223 2.6 7.8 0.00 0.00 0.00 62 1002.0
20260502225105 65 225 4.3 8.7 0.00 0.00 0.00 61 1002.0
20260502224105 67 249 2.6 5.2 0.00 0.00 0.00 60 1002.4
20260502223605 67 232 4.3 7.0 0.00 0.00 0.00 60 1002.4
20260502223105 67 251 2.6 7.8 0.00 0.00 0.00 59 1002.4
20260502222606 67 257 2.6 7.8 0.00 0.00 0.00 59 1002.4
20260502222105 67 199 2.6 7.0 0.00 0.00 0.00 59 1002.5
20260502221605 67 211 4.3 7.8 0.00 0.00 0.00 59 1002.4
20260502221105 67 150 2.6 5.2 0.00 0.00 0.00 59 1002.6
20260502220605 66 165 3.5 7.0 0.00 0.00 0.00 59 1002.7
20260502220105 66 270 2.6 8.7 0.00 0.00 0.00 60 1002.7
20260502215604 66 130 2.6 7.0 0.00 0.00 0.00 61 1002.9
20260502215105 65 125 2.6 7.8 0.00 0.00 0.00 61 1003.0
20260502214605 65 128 3.5 7.8 0.00 0.00 0.00 62 1003.0
20260502214105 65 145 2.6 7.8 0.00 0.00 0.00 62 1003.0
20260502213605 65 135 2.6 12.2 0.00 0.00 0.00 63 1003.0
20260502213106 65 123 2.6 7.8 0.00 0.00 0.00 63 1003.2
20260502212604 65 158 1.7 8.7 0.00 0.00 0.00 64 1003.3
20260502212105 65 156 1.7 7.0 0.00 0.00 0.00 64 1003.4
20260502211608 65 127 4.3 8.7 0.00 0.00 0.00 64 1003.4
20260502211105 65 128 2.6 7.0 0.00 0.00 0.00 65 1003.4
20260502210605 65 204 2.6 7.8 0.00 0.00 0.00 66 1003.4
20260502210105 64 170 2.6 8.7 0.00 0.00 0.00 66 1003.4
20260502205605 64 194 2.6 5.2 0.00 0.00 0.00 66 1003.5
20260502205104 64 163 2.6 7.0 0.00 0.00 0.00 67 1003.5
20260502204605 64 143 2.6 7.0 0.00 0.00 0.00 67 1003.7
20260502204105 64 147 2.6 6.1 0.00 0.00 0.00 66 1003.9
20260502203604 64 133 4.3 11.3 0.00 0.00 0.00 66 1003.7
20260502203105 64 128 3.5 7.8 0.00 0.00 0.00 67 1003.7
20260502202105 63 187 2.6 7.0 0.00 0.00 0.00 68 1004.1
20260502201604 63 181 2.6 10.4 0.00 0.00 0.00 68 1004.1
20260502201106 63 142 4.3 8.7 0.00 0.00 0.00 69 1004.1
20260502200605 63 137 2.6 10.4 0.00 0.00 0.00 69 1004.1
20260502200105 63 126 2.6 7.8 0.00 0.00 0.00 69 1004.1
20260502195605 63 154 2.6 7.0 0.00 0.00 0.00 70 1004.1
20260502195106 63 154 2.6 8.7 0.00 0.00 0.00 70 1004.2
20260502194605 63 192 1.7 7.8 0.00 0.00 0.00 70 1004.1
20260502194106 63 158 2.6 7.8 0.00 0.00 0.00 71 1004.1
20260502193605 63 125 3.5 6.1 0.00 0.00 0.00 71 1004.2
20260502192605 63 155 1.7 10.4 0.00 0.00 0.00 72 1004.2
20260502192105 62 236 1.7 7.0 0.00 0.00 0.00 72 1004.1
20260502190605 61 153 2.6 7.0 0.00 0.00 0.00 73 1004.4
20260502185605 61 197 2.6 6.1 0.00 0.00 0.00 73 1004.4
20260502185104 61 155 2.6 7.0 0.00 0.00 0.00 74 1004.4
20260502184604 61 168 1.7 7.0 0.00 0.00 0.00 74 1004.4
20260502184105 61 120 1.7 7.0 0.00 0.00 0.00 75 1004.4
20260502183605 61 213 1.7 7.0 0.00 0.00 0.00 75 1004.4
20260502183105 61 139 2.6 6.1 0.00 0.00 0.00 76 1004.4
20260502182104 61 210 2.6 7.8 0.00 0.00 0.00 76 1004.2
20260502181604 60 300 1.7 5.2 0.00 0.00 0.00 76 1004.1
20260502181104 60 235 2.6 8.7 0.00 0.00 0.00 77 1004.1
20260502180605 60 236 1.7 7.8 0.00 0.00 0.00 77 1004.2
20260502180105 60 207 2.6 7.8 0.00 0.00 0.00 77 1004.1
20260502170106 57 141 1.7 7.8 0.00 0.00 0.00 83 1004.1
20260502164104 57 141 2.6 8.7 0.00 0.00 0.00 83 1004.2
20260502163604 57 137 2.6 5.2 0.00 0.00 0.00 84 1004.4
20260502163106 57 124 1.7 7.0 0.00 0.00 0.00 84 1004.1
20260502162604 57 171 2.6 6.1 0.00 0.00 0.00 84 1004.1
20260502162105 56 187 1.7 6.1 0.00 0.00 0.00 84 1004.1
20260502161604 57 151 1.7 7.0 0.00 0.00 0.00 84 1004.1
20260502160605 57 154 2.6 7.0 0.00 0.00 0.00 84 1003.7
20260502160105 57 136 2.6 5.2 0.00 0.00 0.00 83 1003.7
20260502152104 56 140 1.7 6.1 0.00 0.00 0.00 83 1003.4
20260502151604 56 163 2.6 6.1 0.00 0.00 0.00 83 1003.7
20260502151105 56 139 2.6 6.1 0.00 0.00 0.00 84 1003.4
20260502150605 56 173 1.7 5.2 0.00 0.00 0.00 84 1003.7
20260502150105 56 157 2.6 5.2 0.00 0.00 0.00 84 1003.4
20260502140104 55 138 1.7 7.0 0.00 0.00 0.00 86 1003.0
20260502130605 54 136 2.6 7.8 0.00 0.00 0.00 87 1002.5
20260502130105 54 144 2.6 6.1 0.00 0.00 0.00 87 1002.7
20260502123605 54 162 1.7 4.3 0.00 0.00 0.00 87 1002.6
20260502123104 54 174 2.6 5.2 0.00 0.00 0.00 88 1002.4
20260502122605 54 150 1.7 4.3 0.00 0.00 0.00 88 1002.4
20260502122104 54 155 2.6 6.1 0.00 0.00 0.00 88 1002.4
20260502121104 54 140 1.7 5.2 0.00 0.00 0.00 88 1002.4
20260502120604 54 157 2.6 6.1 0.00 0.00 0.00 87 1002.4
20260502120104 54 154 0.9 4.3 0.00 0.00 0.00 87 1002.4
20260502115604 54 134 1.7 4.3 0.00 0.00 0.00 87 1002.4
20260502115105 54 133 1.7 4.3 0.00 0.00 0.00 87 1002.4
20260502114604 54 161 1.7 6.1 0.00 0.00 0.00 87 1002.4
20260502114105 54 158 1.7 7.0 0.00 0.00 0.00 87 1002.4
20260502113604 54 146 3.5 6.1 0.00 0.00 0.00 87 1002.4
20260502113105 54 155 2.6 7.8 0.00 0.00 0.00 87 1002.4
20260502112605 54 135 1.7 6.1 0.00 0.00 0.00 87 1002.4
20260502112105 54 122 2.6 6.1 0.00 0.00 0.00 87 1002.4
20260502111604 54 143 3.5 5.2 0.00 0.00 0.00 87 1002.4
20260502111104 54 145 2.6 6.1 0.00 0.00 0.00 87 1002.4
20260502110604 54 140 2.6 5.2 0.00 0.00 0.00 87 1002.4
20260502105104 54 133 1.7 6.1 0.00 0.00 0.00 87 1002.7
20260502104604 54 141 2.6 5.2 0.00 0.00 0.00 87 1002.4
20260502104104 54 137 2.6 5.2 0.00 0.00 0.00 87 1002.5
20260502103604 54 141 2.6 5.2 0.00 0.00 0.00 87 1002.7
20260502103104 54 150 2.6 7.8 0.00 0.00 0.00 87 1002.7
20260502102604 54 139 2.6 6.1 0.00 0.00 0.00 87 1002.7
20260502102104 54 123 2.6 6.1 0.00 0.00 0.00 87 1002.6
20260502101604 54 135 3.5 6.1 0.00 0.00 0.00 87 1002.7
20260502101104 54 152 3.5 7.0 0.00 0.00 0.00 87 1002.7
20260502100604 54 126 4.3 7.8 0.00 0.00 0.00 87 1002.7
20260502100104 54 123 3.5 6.1 0.00 0.00 0.00 87 1002.7
20260502091104 54 126 3.5 7.0 0.00 0.00 0.00 88 1003.2
20260502090604 54 145 3.5 7.8 0.00 0.00 0.00 88 1003.2
20260502090105 54 145 2.6 5.2 0.00 0.00 0.00 88 1003.4
20260502080105 54 151 4.3 7.0 0.00 0.00 0.00 86 1003.4
20260502071107 54 148 2.6 6.1 0.00 0.00 0.00 85 1003.4
20260502070605 54 155 1.7 6.1 0.00 0.00 0.00 85 1003.4
20260502065604 55 136 1.7 4.3 0.00 0.00 0.00 84 1003.4
20260502064604 55 135 2.6 7.8 0.00 0.00 0.00 83 1003.4
20260502064105 55 122 1.7 4.3 0.00 0.00 0.00 83 1003.4
20260502063604 55 140 2.6 5.2 0.00 0.00 0.00 83 1003.4
20260502063103 55 136 2.6 4.3 0.00 0.00 0.00 83 1003.4
20260502062604 55 130 1.7 5.2 0.00 0.00 0.00 83 1003.4
20260502062104 55 134 1.7 7.0 0.00 0.00 0.00 82 1003.6
20260502061604 55 133 1.7 4.3 0.00 0.00 0.00 82 1003.5
20260502060606 55 148 1.7 5.2 0.00 0.00 0.00 81 1003.5
20260502060105 55 115 2.6 4.3 0.00 0.00 0.00 81 1003.7
20260502055606 56 119 1.7 4.3 0.00 0.00 0.00 80 1003.6
20260502055106 56 139 1.7 7.0 0.00 0.00 0.00 80 1003.7
20260502054607 56 135 0.9 4.3 0.00 0.00 0.00 80 1003.6
20260502054105 56 142 1.7 4.3 0.00 0.00 0.00 80 1003.7
20260502053605 56 154 1.7 4.3 0.00 0.00 0.00 79 1003.6
20260502053105 56 133 1.7 4.3 0.00 0.00 0.00 79 1003.6
20260502052606 56 143 1.7 2.6 0.00 0.00 0.00 78 1003.5
20260502052106 57 138 1.7 2.6 0.00 0.00 0.00 78 1003.6
20260502051605 57 120 1.7 4.3 0.00 0.00 0.00 77 1003.5
20260502050605 57 124 1.7 6.1 0.00 0.00 0.00 76 1003.5
20260502050105 58 140 1.7 4.3 0.00 0.00 0.00 76 1003.6
20260502045605 58 147 0.9 1.7 0.00 0.00 0.00 75 1003.7
20260502045105 58 159 1.7 4.3 0.00 0.00 0.00 75 1003.7
20260502044106 58 137 0.9 2.6 0.00 0.00 0.00 74 1003.4
20260502043605 59 144 0.9 4.3 0.00 0.00 0.00 73 1003.4
20260502043106 59 143 0.9 2.6 0.00 0.00 0.00 73 1003.4
20260502042606 59 140 0.9 1.7 0.00 0.00 0.00 73 1003.3
20260502042106 59 137 0.9 2.6 0.00 0.00 0.00 72 1003.1
20260502041606 60 157 1.7 2.6 0.00 0.00 0.00 72 1003.0
20260502041106 60 135 0.9 1.7 0.00 0.00 0.00 72 1003.0
20260502040605 60 135 1.7 1.7 0.00 0.00 0.00 72 1002.9
20260502035605 60 148 0.9 2.6 0.00 0.00 0.00 71 1002.7
20260502035105 60 180 0.0 0.0 0.00 0.00 0.00 70 1002.7
20260502034605 61 180 0.0 0.0 0.00 0.00 0.00 70 1002.7
20260502033605 61 115 0.0 1.7 0.00 0.00 0.00 68 1002.7
20260502033105 62 292 0.0 0.0 0.00 0.00 0.00 68 1002.4
20260502032607 62 292 0.0 0.9 0.00 0.00 0.00 67 1002.4
20260502032107 63 292 0.0 0.9 0.00 0.00 0.00 67 1002.4
20260502031606 63 292 0.0 1.7 0.00 0.00 0.00 66 1002.4
20260502031105 64 267 0.9 0.9 0.00 0.00 0.00 65 1002.4
20260502030605 65 216 0.0 0.0 0.00 0.00 0.00 64 1002.4
20260502030106 65 157 0.9 1.7 0.00 0.00 0.00 64 1002.4
20260502025606 66 157 0.0 0.9 0.00 0.00 0.00 63 1002.0
20260502025106 66 157 0.0 1.7 0.00 0.00 0.00 63 1002.3
20260502024105 67 157 0.9 1.7 0.00 0.00 0.00 62 1002.4
20260502023605 67 135 0.9 1.7 0.00 0.00 0.00 62 1002.4
20260502023106 68 135 0.9 1.7 0.00 0.00 0.00 62 1002.0
20260502022606 68 161 0.0 1.7 0.00 0.00 0.00 63 1002.0
20260502022105 68 247 0.9 4.3 0.00 0.00 0.00 62 1002.0
20260502021606 69 240 2.6 5.2 0.00 0.00 0.00 62 1002.0
20260502021105 69 265 1.7 4.3 0.00 0.00 0.00 62 1002.0
20260502020605 70 257 1.7 4.3 0.00 0.00 0.00 61 1001.8
20260502020105 71 250 1.7 2.6 0.00 0.00 0.00 59 1001.7
20260502015605 71 284 2.6 5.2 0.00 0.00 0.00 58 1001.9
20260502015106 71 269 1.7 2.6 0.00 0.00 0.00 58 1001.7
20260502014606 71 247 1.7 2.6 0.00 0.00 0.00 59 1001.7
20260502014105 71 248 2.6 5.2 0.00 0.00 0.00 60 1001.7
20260502013606 71 258 1.7 5.2 0.00 0.00 0.00 60 1001.7
20260502013104 71 267 2.6 5.2 0.00 0.00 0.00 60 1001.7
20260502012605 71 273 2.6 5.2 0.00 0.00 0.00 60 1001.7
20260502011605 73 286 2.6 5.2 0.00 0.00 0.00 58 1001.7
20260502011106 73 266 2.6 6.1 0.00 0.00 0.00 58 1001.7